TimeCDT,TemperatureF,Dew PointF,Humidity,Sea Level PressureIn,VisibilityMPH,Wind Direction,Wind SpeedMPH,Gust SpeedMPH,PrecipitationIn,Events,Conditions,WindDirDegrees,DateUTC
12:15 AM,68.0,35.6,30,29.86,10.0,South,17.3,25.3,N/A,,Clear,190,2012-10-16 05:15:00
12:35 AM,68.0,35.6,30,29.86,10.0,SSW,18.4,24.2,N/A,,Clear,200,2012-10-16 05:35:00
12:55 AM,66.2,35.6,32,29.86,10.0,South,17.3,24.2,N/A,,Clear,190,2012-10-16 05:55:00
1:15 AM,66.2,37.4,35,29.85,10.0,SSW,17.3,24.2,N/A,,Clear,200,2012-10-16 06:15:00
1:35 AM,66.2,37.4,35,29.85,10.0,SSW,16.1,23.0,N/A,,Clear,200,2012-10-16 06:35:00
1:55 AM,64.4,37.4,37,29.85,10.0,SSW,16.1,21.9,N/A,,Clear,200,2012-10-16 06:55:00
2:15 AM,64.4,37.4,37,29.85,10.0,SSW,15.0,-,N/A,,Clear,200,2012-10-16 07:15:00
2:35 AM,64.4,39.2,40,29.84,10.0,SSW,16.1,21.9,N/A,,Clear,200,2012-10-16 07:35:00
2:55 AM,64.4,39.2,40,29.83,10.0,South,16.1,-,N/A,,Clear,190,2012-10-16 07:55:00
3:15 AM,64.4,41.0,42,29.82,10.0,South,18.4,-,N/A,,Clear,190,2012-10-16 08:15:00
3:35 AM,64.4,41.0,42,29.81,10.0,South,18.4,24.2,N/A,,Clear,190,2012-10-16 08:35:00
3:55 AM,64.4,41.0,42,29.81,10.0,SSW,17.3,24.2,N/A,,Clear,200,2012-10-16 08:55:00
4:15 AM,62.6,41.0,45,29.80,10.0,SSW,16.1,24.2,N/A,,Clear,200,2012-10-16 09:15:00
4:35 AM,62.6,41.0,45,29.79,10.0,SSW,17.3,-,N/A,,Clear,200,2012-10-16 09:35:00
4:55 AM,62.6,42.8,48,29.79,10.0,South,16.1,-,N/A,,Clear,190,2012-10-16 09:55:00
5:15 AM,62.6,42.8,48,29.79,10.0,SSW,15.0,20.7,N/A,,Clear,200,2012-10-16 10:15:00
5:35 AM,60.8,42.8,52,29.79,10.0,SSW,16.1,19.6,N/A,,Clear,200,2012-10-16 10:35:00
5:55 AM,60.8,42.8,52,29.78,10.0,South,17.3,-,N/A,,Clear,180,2012-10-16 10:55:00
6:15 AM,62.6,44.6,52,29.77,10.0,South,18.4,23.0,N/A,,Clear,180,2012-10-16 11:15:00
6:35 AM,60.8,44.6,55,29.76,10.0,South,17.3,-,N/A,,Clear,180,2012-10-16 11:35:00
6:55 AM,60.8,44.6,55,29.77,10.0,South,15.0,-,N/A,,Clear,180,2012-10-16 11:55:00
7:15 AM,59.0,44.6,59,29.77,10.0,SSW,13.8,-,N/A,,Clear,200,2012-10-16 12:15:00
7:35 AM,59.0,44.6,59,29.77,10.0,SSW,15.0,-,N/A,,Clear,200,2012-10-16 12:35:00
7:55 AM,59.0,44.6,59,29.76,10.0,South,16.1,-,N/A,,Clear,190,2012-10-16 12:55:00
8:35 AM,57.2,44.6,63,29.78,10.0,West,4.6,-,N/A,,Clear,260,2012-10-16 13:35:00
8:55 AM,59.0,44.6,59,29.79,10.0,SW,4.6,-,N/A,,Clear,230,2012-10-16 13:55:00
9:15 AM,60.8,46.4,59,29.79,10.0,SSW,9.2,-,N/A,,Clear,210,2012-10-16 14:15:00
9:35 AM,62.6,46.4,55,29.79,10.0,SSW,10.4,-,N/A,,Clear,200,2012-10-16 14:35:00
9:55 AM,66.2,46.4,49,29.79,10.0,SSW,13.8,-,N/A,,Clear,200,2012-10-16 14:55:00
10:15 AM,68.0,46.4,46,29.79,10.0,SSW,11.5,-,N/A,,Clear,210,2012-10-16 15:15:00
10:35 AM,69.8,46.4,43,29.79,10.0,SW,9.2,-,N/A,,Clear,230,2012-10-16 15:35:00
10:55 AM,69.8,46.4,43,29.78,10.0,SW,8.1,-,N/A,,Clear,230,2012-10-16 15:55:00
11:15 AM,69.8,46.4,43,29.78,10.0,WSW,5.8,-,N/A,,Clear,240,2012-10-16 16:15:00
11:35 AM,69.8,46.4,43,29.77,10.0,SW,4.6,-,N/A,,Clear,220,2012-10-16 16:35:00
11:55 AM,71.6,46.4,41,29.76,10.0,SSW,5.8,-,N/A,,Clear,210,2012-10-16 16:55:00
12:15 PM,73.4,46.4,38,29.76,10.0,South,3.5,-,N/A,,Clear,190,2012-10-16 17:15:00
12:35 PM,73.4,46.4,38,29.74,10.0,South,6.9,-,N/A,,Clear,170,2012-10-16 17:35:00
12:55 PM,75.2,44.6,34,29.74,10.0,SE,5.8,-,N/A,,Clear,130,2012-10-16 17:55:00
1:15 PM,77.0,44.6,32,29.73,10.0,SSE,3.5,-,N/A,,Clear,150,2012-10-16 18:15:00
1:35 PM,77.0,44.6,32,29.72,10.0,Calm,Calm,-,N/A,,Clear,0,2012-10-16 18:35:00
1:55 PM,78.8,44.6,30,29.71,10.0,Calm,Calm,-,N/A,,Clear,0,2012-10-16 18:55:00
2:15 PM,78.8,44.6,30,29.69,10.0,South,3.5,-,N/A,,Clear,170,2012-10-16 19:15:00
2:35 PM,78.8,44.6,30,29.68,10.0,SSW,3.5,-,N/A,,Clear,210,2012-10-16 19:35:00
3:15 PM,80.6,44.6,28,29.65,10.0,South,4.6,-,N/A,,Clear,180,2012-10-16 20:15:00
3:35 PM,80.6,44.6,28,29.63,10.0,SSE,5.8,-,N/A,,Clear,150,2012-10-16 20:35:00
3:55 PM,82.4,44.6,26,29.62,10.0,South,8.1,-,N/A,,Clear,180,2012-10-16 20:55:00
4:15 PM,82.4,44.6,26,29.62,10.0,South,8.1,-,N/A,,Clear,170,2012-10-16 21:15:00
4:55 PM,82.4,42.8,25,29.61,10.0,SSW,6.9,-,N/A,,Clear,200,2012-10-16 21:55:00
5:15 PM,82.4,44.6,26,29.60,10.0,SSW,6.9,-,N/A,,Clear,210,2012-10-16 22:15:00
5:35 PM,82.4,44.6,26,29.60,10.0,SSW,8.1,-,N/A,,Clear,200,2012-10-16 22:35:00
5:55 PM,80.6,44.6,28,29.60,10.0,SW,8.1,-,N/A,,Clear,220,2012-10-16 22:55:00
6:15 PM,78.8,44.6,30,29.60,10.0,SSW,5.8,-,N/A,,Clear,210,2012-10-16 23:15:00
6:35 PM,77.0,48.2,36,29.59,10.0,South,5.8,-,N/A,,Clear,190,2012-10-16 23:35:00
6:55 PM,71.6,50.0,46,29.59,10.0,South,6.9,-,N/A,,Clear,190,2012-10-16 23:55:00
7:15 PM,69.8,50.0,49,29.59,10.0,South,5.8,-,N/A,,Clear,180,2012-10-17 00:15:00
7:35 PM,68.0,50.0,52,29.59,10.0,SSE,6.9,-,N/A,,Clear,160,2012-10-17 00:35:00
7:55 PM,66.2,50.0,56,29.59,10.0,South,8.1,-,N/A,,Clear,170,2012-10-17 00:55:00
8:15 PM,64.4,50.0,59,29.58,10.0,South,8.1,-,N/A,,Clear,170,2012-10-17 01:15:00
8:35 PM,66.2,48.2,52,29.58,10.0,South,8.1,-,N/A,,Clear,170,2012-10-17 01:35:00
8:55 PM,64.4,50.0,59,29.57,10.0,South,6.9,-,N/A,,Clear,170,2012-10-17 01:55:00
9:15 PM,66.2,48.2,52,29.57,10.0,South,5.8,-,N/A,,Clear,180,2012-10-17 02:15:00
9:35 PM,64.4,48.2,56,29.58,10.0,WSW,8.1,-,N/A,,Clear,250,2012-10-17 02:35:00
9:55 PM,60.8,48.2,63,29.57,10.0,SW,6.9,-,N/A,,Clear,220,2012-10-17 02:55:00
10:15 PM,62.6,46.4,55,29.57,10.0,SW,8.1,-,N/A,,Clear,220,2012-10-17 03:15:00
10:35 PM,62.6,46.4,55,29.56,10.0,SSW,9.2,-,N/A,,Clear,200,2012-10-17 03:35:00
10:55 PM,60.8,46.4,59,29.55,10.0,South,8.1,-,N/A,,Clear,190,2012-10-17 03:55:00
11:15 PM,59.0,46.4,63,29.54,10.0,SSE,5.8,-,N/A,,Clear,160,2012-10-17 04:15:00
11:35 PM,59.0,46.4,63,29.54,10.0,SSE,6.9,-,N/A,,Clear,160,2012-10-17 04:35:00
11:55 PM,59.0,46.4,63,29.53,10.0,South,8.1,-,N/A,,Clear,180,2012-10-17 04:55:00